Regional Weather Roundup
Issued by NWS Austin/San Antonio, TX

Home | Current Version | Previous Version | Text Only | Print | Product List | Glossary On
Versions: 1 2 3 4 5 6 7 8 9 10 11 12 13 14 15 16 17 18 19 20 21 22 23 24 25 26 27 28 29 30 31 32 33 34 35 36 37 38 39 40 41 42 43 44 45 46 47 48 49 50
427
ASUS44 KEWX 140411
RWREWX
SOUTH TEXAS REGIONAL WEATHER ROUNDUP
NATIONAL WEATHER SERVICE AUSTIN/SAN ANTONIO TX
1000 PM CST WED DEC 13 2017

NOTE: "FAIR" INDICATED FEW OR NO CLOUDS BELOW 12,000 FEET WITH NO
SIGNIFICANT WEATHER AND/OR OBSTRUCTIONS TO VISIBILITY.

* - THESE STATIONS ARE NOT NWS OR FAA STATIONS...AND ARE NOT SUBJECT
    TO NWS AND FAA QUALITY CONTROL.

TXZ171-172-183>190-140500-
TEXAS HILL COUNTRY AND EDWARDS PLATEAU

CITY           SKY/WX    TMP DP  RH WIND       PRES   REMARKS
JUNCTION       CLOUDY    46  34  62 SW3       29.96S
*LLANO         CLOUDY    39  34  81 CALM      29.98F
BURNET         CLOUDY    44  34  67 CALM      29.97F
*HORSESHOE BAY CLOUDY    45  35  69 CALM      29.96F
*KERRVILLE     CLOUDY    49  35  59 S6        29.96S WCI  46
*FREDERICKSBRG CLOUDY    45  32  61 CALM      29.97R
*ROCKSPRINGS   NOT AVBL
*BOERNE STAGE  CLOUDY    52  34  50 SW7       29.98S
*CASTROVILLE   CLOUDY    49  37  62 W3        30.00F
HONDO          CLOUDY    50  39  66 W6        29.99S WCI  48
*UVALDE        CLOUDY    46  40  80 CALM      30.01S
DEL RIO        CLOUDY    46  40  79 CALM      29.97F
LAUGHLIN AFB   MOCLDY    45  39  81 E3        29.98S
CARRIZO SPRGS  MOCLDY    45  43  93 CALM      29.98F
*EAGLE PASS    CLEAR     46  39  76 SE5       29.99S WCI  44
$$

TXZ173-191>194-202-209-217>225-228-140500-
CENTRAL AND SOUTH CENTRAL TEXAS

CITY           SKY/WX    TMP DP  RH WIND       PRES   REMARKS
GEORGETOWN     PTCLDY    46  36  68 S7        29.97F WCI  42
AUSTIN/BERGSTM CLOUDY    41  35  79 CALM      29.97F
AUSTIN/MABRY   PTCLDY    48  37  65 CALM      29.98S
*AUSTIN/EXEC   PTCLDY    45  36  70 CALM      29.97S
*LAGO VISTA    CLOUDY    53  36  52 MISG      29.96F
SAN MARCOS     CLOUDY    47  36  65 S5        29.97F WCI  45
NEW BRAUNFELS  CLOUDY    49  37  63 SW6       29.95F WCI  46
RANDOLPH AFB   CLOUDY    55  36  50 W6        29.97F
PT SAN ANTONIO CLOUDY    51  37  58 SW3       29.97F
SAN ANTONIO    CLOUDY    52  36  54 SW6       29.98F
STINSON FIELD  CLOUDY    51  37  58 SW5       29.97F
*LA GRANGE     CLOUDY    48  39  72 CALM      29.96F
*GIDDINGS      CLOUDY    48  37  64 SW3       29.98F
*GONZALES      CLOUDY    50  38  65 S5        29.98F WCI  48
$$

TXZ163>164-176>182-195>201-210>213-226-227-235-140500-
SOUTHEAST TEXAS

CITY           SKY/WX    TMP DP  RH WIND       PRES   REMARKS
COLLEGE STN    CLOUDY    48  36  63 S5        29.97S WCI  46
*BRYAN         CLOUDY    48  35  60 S6        29.98S WCI  46
*CALDWELL      CLOUDY    47  37  67 SW7       29.97F WCI  44
*CROCKETT        N/A     41  34  75 CALM      29.98F
*BRENHAM       CLOUDY    49  37  64 CALM      29.99R
HUNTSVILLE     CLOUDY    49  36  61 S8        29.96F WCI  45
CONROE         CLOUDY    42  40  92 CALM      29.98F
HOUSTON BUSH   CLOUDY    45  39  79 CALM      29.98F
HOUSTON HOBBY  CLOUDY    49  39  68 S3        29.98F
*HOUSTON SW AP MOCLDY    42  38  86 CALM      30.00F
PEARLAND       MOCLDY    48  40  73 S3        30.00F
HOUSTON HOOKS  MOCLDY    45  40  82 CALM      29.98F
ELLINGTON FLD  CLOUDY    52  37  58 SE3       30.00F
SUGAR LAND     MOCLDY    48  38  68 SW3       29.99F
*HOUSTON EXEC  NOT AVBL
*CLEVELAND MUN MOCLDY    40  38  93 CALM      29.99F
*WHARTON       CLOUDY    48  40  74 S3        30.01S
*COLUMBUS      FAIR      47  40  76 S5        29.99F WCI  45
*EAGLE LAKE    CLOUDY    51  41  69 S6        29.98F
$$

TXZ214>216-236>238-140500-
THE UPPER TEXAS COAST

CITY           SKY/WX    TMP DP  RH WIND       PRES   REMARKS
*ORANGE        CLOUDY    43  42  96 CALM      30.02S
PORT ARTHUR    CLOUDY    44  41  89 CALM      30.00S
GALVESTON      MOCLDY    54  45  71 SW7       30.00F
ANGLETON       CLOUDY    47  39  74 SW3       30.01S
*BAY CITY      CLOUDY    47  42  81 CALM      30.01S
PALACIOS       CLOUDY    54  50  86 S5        30.01F
$$

TXZ229>234-239>247-140500-
TEXAS COASTAL BEND AND RIO GRANDE PLAINS

CITY           SKY/WX    TMP DP  RH WIND       PRES   REMARKS
VICTORIA       CLOUDY    50  42  74 SW6       30.01S WCI  48
*BEEVILLE      CLOUDY    53  43  68 CALM      29.99F
ROCKPORT       MOCLDY    51  47  86 S3        30.00F
*PORT ARANSAS  NOT AVBL
*PORT LAVACA   CLOUDY    51  44  77 S6        30.01S
*INGLESIDE     MOCLDY    51  47  87 S6        30.00F
CORPUS CHRISTI MOCLDY    52  49  89 S8        29.99F
CORPUS NAS     CLOUDY    57  48  72 S7        30.00F
*ROBSTOWN      MOCLDY    53  48  84 S7        29.99F
ALICE          CLOUDY    52  43  71 SW5       30.00F
KINGSVILLE NAS MOCLDY    51  49  92 S5        30.01F
COTULLA        MOCLDY    53  43  68 CALM      30.00F
*FAITH RANCH   CLEAR     52  41  66 SE6       29.99F
LAREDO         MOCLDY    55  42  61 MISG      30.00S
$$

TXZ248>255-140500-
DEEP SOUTH TEXAS

CITY           SKY/WX    TMP DP  RH WIND       PRES   REMARKS
BROWNSVILLE    CLOUDY    60  54  80 CALM      30.02F
PORT ISABEL    CLOUDY    58  54  86 SE3       30.01S
*SOUTH PADRE   NOT AVBL
HARLINGEN      MOCLDY    57  51  80 SE7       30.00F
*HEBBRONVILLE  MOCLDY    52  38  59 CALM      30.01F
MCALLEN        MOCLDY    59  49  69 SE3       30.02S
*WESLACO       MOCLDY    59  49  70 CALM      30.01R
FALFURRIAS     CLOUDY    52  43  72 CALM      30.02R
EDINBURG       CLOUDY    56  48  73 CALM      30.03R
*ZAPATA        CLOUDY    56  40  53 SE3       30.00F
$$

TXZ213>215-236>238-242>244-246-247-251-254-255-140500-
CMAN STATIONS

STATION/POSITION TIME  TEMP    WIND        PRES    WAVE
                       AIR SEA DIR/SP/G            HT/PER
                 (UTC) (F)     (DEG/KT/KT) (MB)    (FT/S)
SABINE PASS      0348   53 62  260/  3/  5 1017.3
SEA RIM ST PARK  0400   53     250/  4/  5 1016.3
NORTH JETTY/GLS  0348          240/  7/  9   N/A
EAGLE POINT      0348   52 55  250/  4/  6 1015.8
MORGANS POINT    0348   54 57  190/  3/  5 1015.4
PORT O`CONNOR    0348   56 61  200/  2/  3 1015.9
MALAQUITE BEACH  0348   60 63  190/  6/  8 1015.4
BAFFIN BAY       0348   57 58  170/  5/  5 1016.1
PORT ISABEL      0348   62 62  140/  3/  3 1016.0
$$




USA.gov is the U.S. government's official web portal to all federal, state and local government web resources and services.